Terminal Aerodrome Forecast
Issued by NWS

Home | Current Version | Previous Version | Text Only | Print | Product List | Glossary On
Versions: 1 2 3 4 5 6 7 8 9 10 11 12 13 14 15 16 17 18 19 20 21
000
FTUS41 KCAR 300548
TAFFVE
TAF
KFVE 300548Z 3006/3106 00000KT P6SM SKC
     FM301000 14004KT 3SM BR SCT250
     FM301200 15005KT P6SM SCT250
     FM301900 17008KT P6SM VCTS BKN060CB
     FM302200 16008KT 3SM SHRA SCT025 BKN045
     FM310200 17006KT 6SM BR SCT003 BKN100
     FM310400 19003KT 2SM BR BKN006=

USA.gov is the U.S. government's official web portal to all federal, state and local government web resources and services.